Poplar Bluff, MO

8:27 AM CST on February 24, 2018 (GMT -0600)
Poplar Bluff Municipal

Weather History for KPOF - April, 2014

Change the Weather History Date:

Thursday, April 17, 2014

  Actual Average Record
Temperature  
Mean Temperature 52 °F -  
Max Temperature 66 °F 71 °F 89 °F (1937)
Min Temperature 37 °F 47 °F 29 °F (1951)
Degree Days  
Heating Degree Days 14    
Growing Degree Days 2 (Base 50)    
Moisture  
Dew Point 38 °F    
Average Humidity 60    
Maximum Humidity 82    
Minimum Humidity 32    
Precipitation  
Precipitation 0.00 in - - ()
Sea Level Pressure  
Sea Level Pressure 30.23 in    
Wind  
Wind Speed 3 mph (South)    
Max Wind Speed 12 mph    
Max Gust Speed -    
Visibility 10 miles    
Events      
Averages and records for this station are not official NWS values.
T = Trace of Precipitation, MM = Missing Value Source: NWS Daily Summary

Daily Weather History Graph

Daily Weather History Graph

Search for Another Location

Airport or City:

Trip Planner

Search our weather history database for the weather conditions in past years. The results will help you decide how hot, cold, wet, or windy it might be!

Date:

Astronomy

Apr. 17, 2014 Rise Set
Actual Time 6:24 AM CDT 7:37 PM CDT
Civil Twilight 5:57 AM CDT 8:04 PM CDT
Nautical Twilight 5:25 AM CDT 8:36 PM CDT
Astronomical Twilight 4:52 AM CDT 9:09 PM CDT
Moon 10:20 PM CDT (4/17) 7:59 AM CDT (4/17)
Length of Visible Light 14h 06m
Length of Day
13h 12m
Waning Gibbous, 93% of the Moon is Illuminated
Apr 17
Waning Gibbous
Apr 22
Last Quarter
Apr 29
New
May 6
First Quarter
May 14
Full

Hourly Weather History & Observations

Time (CDT) Temp. Windchill Dew Point Humidity Pressure Visibility Wind Dir Wind Speed Gust Speed Precip Events Conditions
12:53 AM 42.1 °F 40.2 °F 35.1 °F 76% 30.18 in 10.0 mi WNW 3.5 mph - N/A   Clear
1:53 AM 41.0 °F - 35.1 °F 79% 30.19 in 10.0 mi Calm Calm - N/A   Clear
2:53 AM 39.9 °F - 34.0 °F 79% 30.18 in 10.0 mi Calm Calm - N/A   Clear
3:53 AM 39.0 °F - 34.0 °F 82% 30.19 in 10.0 mi Calm Calm - N/A   Clear
4:53 AM 37.0 °F - 32.0 °F 82% 30.20 in 10.0 mi Calm Calm - N/A   Clear
5:53 AM 37.0 °F - 32.0 °F 82% 30.22 in 10.0 mi Calm Calm - N/A   Clear
6:53 AM 37.0 °F - 32.0 °F 82% 30.24 in 10.0 mi Calm Calm - N/A   Clear
7:53 AM 43.0 °F - 36.0 °F 76% 30.27 in 10.0 mi Calm Calm - N/A   Clear
8:53 AM 48.9 °F - 37.9 °F 66% 30.28 in 10.0 mi Calm Calm - N/A   Clear
9:53 AM 55.9 °F - 39.9 °F 55% 30.29 in 10.0 mi Calm Calm - N/A   Clear
12:53 PM 63.0 °F - 36.0 °F 37% 30.25 in 10.0 mi SSW 8.1 mph - N/A   Clear
1:53 PM 64.9 °F - 37.0 °F 36% 30.24 in 10.0 mi South 6.9 mph - N/A   Clear
2:53 PM 66.9 °F - 36.0 °F 32% 30.23 in 10.0 mi SW 11.5 mph - N/A   Clear
3:53 PM 66.9 °F - 37.0 °F 33% 30.22 in 10.0 mi Variable 5.8 mph - N/A   Clear
4:53 PM 66.9 °F - 39.9 °F 37% 30.22 in 10.0 mi South 8.1 mph - N/A   Clear
5:53 PM 66.9 °F - 39.0 °F 36% 30.22 in 10.0 mi South 5.8 mph - N/A   Clear
6:53 PM 64.0 °F - 44.1 °F 48% 30.21 in 10.0 mi SE 4.6 mph - N/A   Clear
7:53 PM 60.1 °F - 43.0 °F 53% 30.22 in 10.0 mi SE 5.8 mph - N/A   Clear
8:53 PM 59.0 °F - 43.0 °F 55% 30.23 in 10.0 mi SSE 5.8 mph - N/A   Partly Cloudy
9:53 PM 59.0 °F - 42.1 °F 53% 30.23 in 10.0 mi SE 3.5 mph - N/A   Scattered Clouds
10:53 PM 53.1 °F - 45.0 °F 74% 30.22 in 10.0 mi Calm Calm - N/A   Clear
11:53 PM 50.0 °F - 43.0 °F 77% 30.23 in 10.0 mi NNW 3.5 mph - N/A   Clear